Location: Bruderhein
(53.8035°N, 112.9265°W)
Time: 12:27:53
(UTC+00:00)

deb Delta 139 - Pass Details

Date: 12 December 2023
Orbit: 731 x 794 km, 98.6° (Epoch: 01 March)

Event Time Altitude Azimuth Distance (km) Brightness Sun altitude
Rises 14:36:35 0° 17° (NNE) 3,184 ? -8.6°
Reaches altitude 10° 14:38:53 10° 20° (NNE) 2,251 ? -8.3°
Maximum altitude 14:43:49 69° 104° (ESE) 785 ? -7.7°
Drops below altitude 10° 14:48:41 10° 188° (S) 2,229 ? -7.1°
Sets 14:50:58 0° 191° (S) 3,150 ? -6.8°
